Location: Vaughan
(31.9146°N, 97.1736°W)
Time: 01:14:25
(UTC+00:00)

Centaur D-1A AC-31 - Pass Details

Date: 10 December 2025
Orbit: 496 x 36405 km, 27.3° (Epoch: 17 January)

Event Time Altitude Azimuth Distance (km) Brightness Sun altitude
Rises 17:43:34 0° 227° (SW) 17,390 8.8 34.5°
Reaches altitude 10° 18:02:09 10° 224° (SW) 20,307 9.3 35.0°
Drops below altitude 10° 00:11:54 10° 271° (W) 37,031 11.3 -10.0°
Maximum altitude 03:23:44 42° 223° (SW) 2,856 4.3 -49.8°
Enters shadow 03:24:16 42° 216° (SW) 2,725 4.2 -50.0°
